{"data":{"norad_id":67826,"intl_designator":"2026-033F","name":"STARLINK-35865","alt_names":[],"object_type":"PAYLOAD","status":"ACTIVE","operator":null,"country":"US","launch_date":"2026-02-16","launch_site_code":"AFETR","launch_vehicle":null,"mission":null,"orbit_class":"UNKNOWN","rcs_meters":null,"size_class":null,"mass_kg":null,"dimensions":null,"purposes":["comms"],"wikipedia_slug":null,"has_3d_model":false,"image_url":null,"decayed_at":null,"tle_current":{"epoch":"2026-09-19T16:29:02.626080Z","epoch_age_seconds":136782,"freshness":"FRESH","line1":"1 67826U 26033F   26262.68683595  .00009865  00000+0  36739-3 0  9999","line2":"2 67826  43.0040 251.4356 0001697 272.0078  88.0579 15.27593207 34349","mean_motion":15.27593207,"eccentricity":0.0001697,"inclination_deg":43.004,"raan_deg":251.4356,"arg_perigee_deg":272.0078,"mean_anomaly_deg":88.0579,"bstar":0.00036739,"rev_number":3434,"period_min":94.26593371857,"perigee_km":481.84521324588,"apogee_km":484.17388638488,"semimajor_km":6861.1465498154,"source":"CELESTRAK","updated_at":"2026-09-20T09:00:43.667941Z"}}}